Погода в Апаресида-ди-Гояния

Бразилия     16°48′09″S   49°14′12″W
темп.,
°C
ветер,
м/с
пор.,
м/с
влажн.,
%
обл.,
%
осадки,
мм/ч
давл.,
гПа
погр.,
м
27 февраля, сб
сб2700:00+21св2580100 0.2 1012242
03:00+20св2583100 0.3 1011258
06:00+20всв248686 0.0 1012228
09:00+22св258386 0.1 1013493
12:00+26с356857 4.9 10121004
15:00+25ссз347774 14.4 1009684
18:00+22ссв3684100 4.1 1009393
21:00+21ссв3688100 5.6 1011293
28 февраля, вс
вс2800:00+20ссв3790100 1.8 1012367
03:00+20св2694100 11.8 1011411
06:00+20св1589100 3.1 1012300
09:00+22ссв368099 3.3 1013605
12:00+22ссв4878100 1.0 1012776
15:00+25св466899 1.3 10091130
18:00+22ссв258197 3.9 1009376
21:00+21всв258299 5.0 1011309
1 марта, пн
пн100:00+21всв2486100 0.0 1012265
03:00+20в269199 0.6 1010320
06:00+20вюв2589100 0.7 1011230
09:00+21в3886100 0.7 1013482
12:00+25всв367091 0.6 10121066
15:00+27св456951 4.3 10091084
18:00+24св258083 5.8 1008297
21:00+22всв248291 10.2 1011183
2 марта, вт
вт200:00+21ссз1188100 3.4 101386
03:00+20зсз1287100 4.8 1012156
06:00+20св268799 1.1 1013305
09:00+20всв3891100 4.4 1015467
12:00+23в3683100 1.3 1013535
15:00+26в3672100 1.4 1010825
18:00+24всв258097 5.9 1010247
21:00+22св248298 10.0 1013182
3 марта, ср
ср300:00+21всв1289100 3.8 1015163
03:00+20вюв2590100 7.5 1014255
06:00+20в248499 0.4 1015178
09:00+23всв267598 0.4 1017460
12:00+27всв356196 0.1 10151178
15:00+28всв336376 1.6 10121188
18:00+25в2274100 2.3 1011461
21:00+22в248095 2.8 1014189